Location: �roudeville
(49.4762°N, 1.3900°W)
Time: 07:08:02
(UTC+00:00)

Daily predictions for brighter satellites

Satellite Brightness Start Highest point End
(mag) Time Altitude Azimuth Time Altitude Azimuth Time Altitude Azimuth
NOSS 2-2 (D) 4.3 18:37:26 10° S 18:40:11 22° ESE 18:43:07 10° ENE
CENTAUR R/B 3.7 18:36:14 10° NW 18:43:30 44° NNE 18:51:38 10° E
SKYMED 2 4.2 18:39:32 10° N 18:43:51 64° WNW 18:48:09 10° SSW
Iridium 4 Rocket 3.5 18:40:01 10° S 18:45:00 79° E 18:50:28 10° N
GP-B 3.5 18:41:18 10° N 18:45:46 70° W 18:50:10 10° SSW
YAOGAN 1 2.7 18:41:50 10° SSE 18:46:10 82° WSW 18:50:32 10° NNW
Cosmos 1975 2.8 18:42:23 10° S 18:46:28 73° E 18:50:33 10° NNE
Cosmos 1437 2.5 18:46:45 10° NNW 18:49:45 88° ENE 18:52:45 10° SSE
ATLAS 3B R/B 4.0 18:44:31 10° NW 18:50:07 27° NNE 18:55:51 10° ENE
H-2A R/B 2.0 18:45:28 10° SSE 18:50:22 64° ENE 18:55:25 10° N
SJ-11-01 4.3 18:46:16 10° SSE 18:50:57 69° ENE 18:55:38 10° N
CZ-4 R/B 2.1 18:47:24 10° S 18:51:34 60° WSW 18:55:45 10° NNW
ISS -2.3 18:51:10 10° SSW 18:53:47 21° SE 18:56:09 11° E
USA 238 DEB 4.1 18:48:19 10° NW 18:55:19 55° NE 19:02:30 10° ESE
USA 238 4.1 18:48:25 10° NW 18:55:25 55° NE 19:02:35 10° ESE
Cosmos 1842 3.5 18:51:38 10° NNW 18:55:30 73° W 18:59:21 10° S
In-Cosmos 22 4.5 18:52:11 10° N 18:57:13 42° ENE 19:02:16 10° SE
ARGOS 3.2 18:58:37 10° SSE 19:03:55 66° ENE 19:09:16 10° N
Cosmos 1025 Rocket 3.5 19:00:35 10° N 19:04:45 41° ENE 19:08:55 10° SE
CZ-2C R/B 3.5 19:00:35 10° NNE 19:05:25 30° E 19:10:18 10° SSE
Cosmos 990 Rocket 4.3 19:00:53 10° SSW 19:06:00 72° WNW 19:11:11 10° NNE
Cosmos 1782 Rocket 3.6 19:02:14 10° S 19:06:40 88° WNW 19:11:09 10° N
Cosmos 1707 2.7 19:04:16 10° N 19:08:05 59° ENE 19:11:52 10° SSE
Cosmos 2151 Rocket 4.3 19:07:42 10° SSE 19:11:38 32° E 19:15:38 10° NNE
USA 186 2.0 19:13:02 11° SE 19:15:52 46° ENE 19:19:01 10° N
CREW DRAGON DEMO-1 DEB 3.3 19:12:59 10° WNW 19:15:58 54° N 19:18:00 18° ENE
Ariane Rocket 3.1 19:13:56 10° SE 19:18:52 55° ENE 19:23:51 10° N
SJ-6B 3.2 19:16:15 14° SE 19:19:11 40° ENE 19:22:44 10° N
CZ-2C R/B 3.8 19:14:46 10° S 19:19:57 60° W 19:25:29 10° NNW
FREGAT/IRIS 3.0 19:20:39 26° ESE 19:21:23 31° ENE 19:23:46 10° N
Cosmos 2263 Rocket 2.5 19:16:38 10° SW 19:22:11 70° WNW 19:27:49 10° NNE
Nadezhda 4 Rocket 4.1 19:16:16 10° N 19:22:16 54° ENE 19:28:14 10° SSE
Cosmos 1072 Rocket 4.5 19:16:47 10° S 19:22:58 69° E 19:29:17 10° NNE
NOSS 3-2 (A) 4.0 19:15:45 10° NW 19:23:06 75° NE 19:30:19 15° SE
NOSS 2-2 (C) 3.1 19:21:03 10° SSW 19:24:30 57° SE 19:28:23 10° NE
HJ-1C 4.4 19:22:18 10° S 19:25:28 46° W 19:28:40 10° NNW
MOS 1 4.4 19:22:00 10° SSE 19:27:36 60° ENE 19:33:13 10° N
Cosmos 1975 Rocket 4.1 19:24:21 10° NNW 19:28:31 48° W 19:32:40 10° SSW
Cosmos 1844 Rocket 3.2 19:24:08 10° S 19:29:06 34° ESE 19:34:06 10° NE
Cosmos 2034 Rocket 4.2 19:23:19 10° SSE 19:29:27 52° E 19:35:35 10° NNE
USA 102 3.4 19:24:21 10° SSE 19:24:06 - SSE 19:29:58 36° SSE
Cosmos 2298 Rocket 4.2 19:26:28 10° S 19:31:32 47° ESE 19:36:38 10° NNE
ATLAS CENTAUR R/B 4.0 19:32:35 10° NW 19:34:16 12° NNW 19:35:56 10° N
SPOT 3 Rocket 4.1 19:32:57 20° ESE 19:35:55 39° ENE 19:40:40 10° N
Cosmos 1867 4.4 19:38:32 10° NW 19:43:48 50° WSW 19:49:02 10° SSE
USA 234 3.8 19:37:59 10° ENE 19:43:49 34° SE 19:49:38 10° SSW
Resurs 01 Rocket 2.5 19:42:54 27° E 19:44:09 31° ENE 19:48:06 10° N
Lacrosse 5 rocket 2.9 19:41:42 10° WNW 19:45:39 33° N 19:49:28 12° NE
MetOp-A 4.1 19:42:59 13° SSE 19:47:51 76° ENE 19:53:14 10° NNW
Cosmos 1833 Rocket 4.0 19:44:39 10° NNW 19:49:16 25° NE 19:51:25 20° ENE
Sich 1 Rocket 4.4 19:45:13 10° SSW 19:49:38 55° WNW 19:54:07 10° N
Cosmos 372 Rocket 4.0 19:45:26 10° SSW 19:50:42 88° WNW 19:55:58 10° NNE
MOS 1 Rocket 3.8 19:48:15 10° N 19:52:41 57° WNW 19:56:55 10° SSW
OBJECT-B 0.9 19:52:33 49° ESE 19:52:56 53° ENE 19:56:08 10° N
Meteor 1-15 Rocket 4.3 19:48:20 10° S 19:53:48 56° E 19:59:24 10° NNE
IRS-1A Rocket 4.5 19:47:58 10° SSE 19:53:54 81° WSW 19:59:48 10° NNW
Cosmos 1626 3.2 19:53:10 10° N 19:56:03 28° ENE 19:56:03 28° ENE
NOSS 3-2 (C) 4.0 19:50:34 10° NW 19:57:57 78° NE 20:03:03 26° SE
SJ 16-02 4.4 19:55:18 10° W 19:58:07 16° NW 20:00:56 10° N
Meteor 1-12 Rocket 4.5 19:52:49 10° SSW 19:58:44 76° WNW 20:04:34 10° N
DMSP B5D2-2 4.0 19:54:00 10° NNE 19:59:19 68° ESE 20:04:34 10° S
ARIANE 5 R/B 3.6 20:01:02 27° ENE 20:01:11 27° ENE 20:04:52 10° N
Cosmos 2150 Rocket 4.0 19:55:50 10° SSW 20:01:12 74° ESE 20:06:39 10° NNE
Cosmos 1634 Rocket 4.3 19:59:03 25° SE 20:02:07 42° E 20:07:53 10° NNE
Abrixas rocket 2.1 20:00:29 10° W 20:02:59 61° SW 20:02:59 61° SW
BREEZE-M TANK 3.3 19:55:30 10° WSW 20:03:37 45° S 20:04:38 37° SE
Okean 2 Rocket 3.8 20:03:39 10° SSW 20:08:04 54° WNW 20:12:29 10° N
Cosmos 1125 Rocket 3.5 20:03:50 10° S 20:09:02 60° ESE 20:14:17 10° NNE
Cosmos 2285 Rocket 4.0 20:02:57 10° S 20:09:02 54° ESE 20:15:13 10° NNE
Okean 1 Rocket 3.1 20:08:19 39° SSE 20:09:41 57° E 20:14:06 10° NNE
Cosmos 1627 Rocket 4.5 20:10:06 10° N 20:16:30 68° ENE 20:19:38 32° SSE
ERS-1 Rocket 4.4 20:17:27 22° ENE 20:17:27 22° ENE 20:21:12 10° N
Resurs 1-3 3.5 20:18:56 42° S 20:20:25 84° WSW 20:24:52 10° NNW
Cosmos 1092 Rocket 3.9 20:15:40 10° N 20:21:52 89° E 20:25:37 26° S
Meteor 2-13 Rocket 4.4 20:16:00 10° N 20:22:14 87° WSW 20:26:06 24° S
Meteor 2-5 Rocket 3.6 20:17:23 10° N 20:23:02 82° ENE 20:25:27 37° SSE
Cosmos 2195 Rocket 4.4 20:17:46 10° N 20:24:05 83° E 20:27:20 31° SSE
Cosmos 1805 3.1 20:24:12 81° SE 20:24:19 83° E 20:28:16 10° NNE
Cosmos 1674 3.3 20:22:03 10° NNW 20:25:50 55° W 20:27:00 38° SSW
ATLAS 2AS CENTAUR R/B 3.3 20:19:51 10° S 20:27:05 41° ESE 20:34:19 10° NE
Cosmos 2026 Rocket 3.9 20:21:41 10° N 20:28:04 78° E 20:30:53 36° SSE
ISS -2.6 20:26:53 10° WSW 20:29:08 39° WSW 20:29:08 39° WSW
H-2A R/B 4.5 20:26:44 10° SW 20:30:17 19° W 20:33:55 10° NW
NOSS 2-2 (D) 4.5 20:27:01 10° WSW 20:30:25 41° NW 20:34:24 10° NE
Cosmos 2082 Rocket 3.3 20:26:38 10° NNW 20:31:28 29° NE 20:32:16 28° ENE
BREEZE-M DEB (TANK) 4.2 20:29:14 10° SW 20:33:17 76° SSE 20:50:04 10° ENE
CENTAUR R/B 3.2 20:26:58 10° NW 20:34:59 79° SW 20:39:10 35° SSE
Cosmos 1733 4.1 20:36:18 40° NNE 20:36:18 40° NNE 20:38:51 10° NNE
Meteor 1-22 Rocket 4.3 20:34:25 46° SSE 20:36:01 63° E 20:41:59 10° NNE
Cosmos 1892 Rocket 3.9 20:34:03 10° N 20:37:39 51° NE 20:37:39 51° NE
CZ-2C R/B 3.5 20:34:27 10° NNE 20:38:56 81° ESE 20:38:59 81° ESE
Cosmos 1428 Rocket 4.4 20:33:27 10° N 20:39:48 87° E 20:42:08 42° S
ATLAS 3B R/B 3.0 20:35:32 10° NW 20:42:14 56° NE 20:44:10 44° E
COSMOS 2406 3.2 20:36:50 10° NNW 20:42:30 62° ENE 20:43:10 58° E
SPOT 1/Viking Rocket 3.8 20:43:21 49° ENE 20:43:21 49° ENE 20:48:14 10° N
SL-14 R/B 3.7 20:40:06 10° N 20:43:14 56° N 20:43:14 56° N
Cosmos 2279 Rocket 4.0 20:44:35 54° ESE 20:45:01 55° E 20:51:07 10° NNE
Meteor 1-24 Rocket 3.6 20:40:18 10° NNW 20:45:48 87° W 20:47:08 55° S
CZ-2C R/B 3.6 20:40:36 10° N 20:45:54 49° WNW 20:51:15 10° SW
USA 238 DEB 4.5 20:39:26 10° NW 20:46:20 49° WSW 20:49:57 28° S
USA 238 4.5 20:39:32 10° NW 20:46:27 50° WSW 20:50:02 29° S
Cosmos 1269 Rocket 3.9 20:41:56 10° NNW 20:47:17 85° WSW 20:48:00 68° S
Cosmos 2142 Rocket 4.4 20:47:06 55° SSE 20:48:19 67° E 20:54:31 10° NNE
Spot 2 Rocket 3.5 20:51:07 62° NE 20:51:07 62° NE 20:55:53 10° N
Exosat Rocket 3.7 20:49:44 10° SW 20:55:11 70° WNW 21:00:12 10° NNE
Cosmos 1766 4.2 20:58:56 47° NW 20:58:56 47° NW 21:02:19 10° N
Terra 3.3 21:02:36 26° NNE 21:02:36 26° NNE 21:05:21 10° N
MetOp-B 4.1 21:01:41 72° SSW 21:02:11 79° WSW 21:07:34 10° NNW
Cosmos 2278 Rocket 4.2 21:07:57 15° NE 21:07:57 15° NE 21:08:54 10° NE
Cosmos 1844 4.1 20:58:35 10° SW 21:04:14 63° WNW 21:09:52 10° NNE
Lacrosse 4 Rocket 3.1 21:04:20 10° NNW 21:06:37 26° N 21:06:37 26° N
Cosmos 909 Rocket 4.3 21:02:21 10° NW 21:08:55 55° NE 21:09:31 53° ENE
Okean 1-7 Rocket 4.3 21:04:50 10° N 21:08:19 52° N 21:08:19 52° N
Cosmos 1844 Rocket 3.6 21:07:31 10° SW 21:12:51 46° NW 21:18:16 10° NNE
Resurs 01 Rocket 3.0 21:20:28 33° W 21:20:36 33° W 21:24:40 10° NNW
Cosmos 2251 Rocket 4.1 21:15:32 10° NNW 21:19:53 50° NNE 21:19:53 50° NNE
OBJECT-B 4.1 21:25:45 11° W 21:25:45 11° W 21:26:24 10° WNW
Lacrosse 5 rocket 3.0 21:21:39 10° NW 21:25:05 33° N 21:25:05 33° N
USA 234 3.1 21:24:44 41° ENE 21:27:20 89° NNW 21:33:54 10° WSW
SPOT 5 3.7 21:28:43 50° N 21:28:43 50° N 21:32:43 10° N
Cosmos 2266 Rocket 4.0 21:24:15 10° N 21:29:34 66° NNE 21:29:34 66° NNE
Cosmos 1833 Rocket 2.9 21:28:09 10° NNW 21:33:07 67° NW 21:33:07 67° NW
ARIANE 5 R/B 4.2 21:38:36 32° WNW 21:38:36 32° WNW 21:41:35 10° NNW
Cosmos 1655 Rocket 4.1 21:35:34 10° NNW 21:41:39 74° W 21:41:39 74° W
NOSS 3-4 (A) 4.5 21:57:18 37° NNE 21:57:18 37° NNE 22:01:07 10° NE
ERS-1 Rocket 4.1 21:57:26 40° NW 21:57:26 40° NW 22:00:48 10° NNW
Cosmos 2082 Rocket 3.3 22:10:26 10° NNW 22:14:06 40° NW 22:14:06 40° NW
ATLAS 2AS CENTAUR R/B 3.2 22:09:55 10° SW 22:17:51 67° NW 22:25:41 10° NE
ATLAS 3B R/B 3.6 22:26:25 10° NW 22:31:25 39° W 22:31:25 39° W
Terra 4.1 22:41:29 21° NW 22:41:29 21° NW 22:43:19 10° NNW
Cosmos 2278 Rocket 3.8 22:49:46 31° N 22:49:46 31° N 22:53:07 10° NNE
USA 234 4.3 23:03:49 10° ENE 23:12:14 38° WNW 23:16:22 10° W
CZ-4C R/B 4.2 23:34:17 24° NNE 23:34:17 24° NNE 23:36:48 10° NE
